Location: Newark
(35.2672°N, 80.7344°W)
Time: 06:10:39
(UTC+00:00)

LightSail 2 - Visible Passes

Search period start: 07 December 2019 00:00
Search period end: 17 December 2019 00:00
Orbit: 696 x 730 km, 24.0° (Epoch: 06 December)

Date Brightness Start Highest point End Pass type
(mag) Time Alt. Az. Time Alt. Az. Time Alt. Az.
07 Dec 7.4 00:49:24 10° SW 00:52:14 17° SSW 00:52:14 17° SSW visible
07 Dec 7.2 23:51:07 10° SW 23:54:44 19° S 23:58:00 11° SSE visible
08 Dec 7.3 22:52:57 10° SW 22:56:50 21° S 23:00:42 10° SE visible
09 Dec 7.6 00:39:32 10° SW 00:41:39 12° SSW 00:42:49 12° S visible
09 Dec 7.6 23:40:48 10° SW 23:43:46 15° SSW 23:46:45 10° SSE visible
10 Dec 7.6 22:42:21 10° SW 22:45:52 18° SSW 22:49:21 10° SSE visible
11 Dec 7.9 23:31:21 10° SW 23:32:45 11° SSW 23:34:08 10° S visible
12 Dec 7.8 22:32:11 10° SW 22:34:50 14° SSW 22:37:30 10° SSE visible
